Regional Weather Roundup
Issued by NWS Charleston, WV

Home | Current Version | Previous Version | Text Only | Print | Product List | Glossary Off
Versions: 1 2 3 4 5 6 7 8 9 10 11 12 13 14 15 16 17 18 19 20 21 22 23 24 25 26 27 28 29 30 31 32 33 34 35 36 37 38 39 40 41 42 43 44 45 46 47 48 49 50

000
ASUS41 KRLX 310210
RWRRLX
West Virginia Regional Weather Roundup
National Weather Service Charleston WV
1000 PM EDT SUN AUG 30 2015

Note: "fair" indicates few or no clouds below 12,000 feet with no
significant weather and/or obstructions to visibility.

WVZ003-310300-
Northern Panhandle of West Virginia

CITY           SKY/WX    TMP DP  RH WIND       PRES   REMARKS
WHEELING       MOCLDY    71  65  81 CALM      30.11R
$$

WVZ009-310300-
Northwest West Virginia

CITY           SKY/WX    TMP DP  RH WIND       PRES   REMARKS
PARKERSBURG    CLEAR     72  67  84 CALM      30.13R
$$

WVZ006-310300-
Western West Virginia

CITY           SKY/WX    TMP DP  RH WIND       PRES   REMARKS
HUNTINGTON     MOCLDY    74  65  73 CALM      30.11R
$$

WVZ015-310300-
West Central West Virginia

CITY           SKY/WX    TMP DP  RH WIND       PRES   REMARKS
CHARLESTON     PTCLDY    71  68  90 SE5       30.12R
$$

WVZ022-031-310300-
North Central West Virginia

CITY           SKY/WX    TMP DP  RH WIND       PRES   REMARKS
CLARKSBURG     MOCLDY    74  67  78 S5        30.13R
MORGANTOWN     CLOUDY    73  67  81 NW5       30.14R
$$

WVZ025-035-042-045-310300-
Southern West Virginia

CITY           SKY/WX    TMP DP  RH WIND       PRES   REMARKS
BECKLEY        CLOUDY    69  61  75 S3        30.21R
LOGAN            N/A     70  66  88 CALM      30.15R
BLUEFIELD      CLOUDY    71  60  68 SE5       30.23S
LEWISBURG      CLOUDY    71  62  72 CALM      30.21R
$$

WVZ047-310300-
Northern Mountains of West Virginia

CITY           SKY/WX    TMP DP  RH WIND       PRES   REMARKS
ELKINS         CLOUDY    69  64  84 CALM      30.19R
$$

WVZ052-310300-
Eastern Panhandle of West Virginia

CITY           SKY/WX    TMP DP  RH WIND       PRES   REMARKS
MARTINSBURG    CLOUDY    76  64  66 S6        30.09R
PETERSBURG     LGT RAIN  69  67  94 CALM      30.15S
$$


USA.gov is the U.S. government's official web portal to all federal, state and local government web resources and services.